TimeMDT,TemperatureF,Dew PointF,Humidity,Sea Level PressureIn,VisibilityMPH,Wind Direction,Wind SpeedMPH,Gust SpeedMPH,PrecipitationIn,Events,Conditions,WindDirDegrees,DateUTC
12:00 AM,36,21,41,30.32,,WSW,9.2,,,,,240,2012-10-06 06:00:00
12:00 AM,35.8,20.8,55,30.32,-9999.0,WSW,9.2,18.4,N/A,,Unknown,240,2012-10-06 06:00:00
1:00 AM,35.8,21.0,55,30.32,-9999.0,WSW,11.5,19.6,N/A,,Unknown,250,2012-10-06 07:00:00
2:00 AM,36.5,20.8,53,30.32,-9999.0,SW,8.1,19.6,N/A,,Unknown,230,2012-10-06 08:00:00
3:00 AM,39.0,20.1,47,30.30,-9999.0,WSW,11.5,19.6,N/A,,Unknown,250,2012-10-06 09:00:00
4:00 AM,36.3,21.2,54,30.31,-9999.0,WSW,9.2,-,N/A,,Unknown,240,2012-10-06 10:00:00
5:00 AM,38.1,21.0,50,30.32,-9999.0,West,8.1,-,N/A,,Unknown,260,2012-10-06 11:00:00
6:00 AM,38,21,37,30.35,,WSW,6.9,,,,,250,2012-10-06 12:00:00
7:00 AM,38.5,21.0,50,30.37,-9999.0,SW,8.1,-,N/A,,Unknown,230,2012-10-06 13:00:00
8:00 AM,38.8,21.6,50,30.38,-9999.0,WSW,6.9,-,N/A,,Unknown,240,2012-10-06 14:00:00
9:00 AM,37.6,23.2,56,30.39,-9999.0,WSW,8.1,-,N/A,,Unknown,240,2012-10-06 15:00:00
10:00 AM,40.3,23.2,51,30.37,-9999.0,SW,5.8,-,N/A,,Unknown,220,2012-10-06 16:00:00
11:00 AM,42.4,22.8,46,30.35,-9999.0,WSW,12.7,20.7,N/A,,Unknown,250,2012-10-06 17:00:00
12:00 PM,44,24,32,30.33,,WSW,9.2,,,,,250,2012-10-06 18:00:00
12:00 PM,44.4,24.1,45,30.33,-9999.0,WSW,9.2,-,N/A,,Unknown,250,2012-10-06 18:00:00
1:00 PM,50.7,26.4,39,30.30,-9999.0,WSW,5.8,-,N/A,,Unknown,250,2012-10-06 19:00:00
2:00 PM,53.2,28.8,39,30.28,-9999.0,West,6.9,-,N/A,,Unknown,260,2012-10-06 20:00:00
3:00 PM,57.2,30.9,37,30.25,-9999.0,West,2.3,-,N/A,,Unknown,260,2012-10-06 21:00:00
4:00 PM,59.5,29.8,32,30.22,-9999.0,NE,3.5,-,N/A,,Unknown,50,2012-10-06 22:00:00
5:00 PM,59.4,30.0,33,30.21,-9999.0,West,1.2,-,N/A,,Unknown,280,2012-10-06 23:00:00
6:00 PM,55,34,33,30.19,,Calm,Calm,,,,,,2012-10-07 00:00:00
6:00 PM,55.2,34.0,45,30.19,-9999.0,Calm,Calm,-,N/A,,Unknown,0,2012-10-07 00:00:00
7:00 PM,42.4,33.8,71,30.22,-9999.0,South,1.2,-,N/A,,Unknown,180,2012-10-07 01:00:00
8:00 PM,35.4,30.9,84,30.24,-9999.0,Calm,Calm,-,N/A,,Unknown,0,2012-10-07 02:00:00
9:00 PM,31.6,28.6,88,30.22,-9999.0,South,1.2,-,N/A,,Unknown,170,2012-10-07 03:00:00
10:00 PM,31.8,28.9,89,30.20,-9999.0,West,2.3,-,N/A,,Unknown,270,2012-10-07 04:00:00
11:00 PM,44.6,29.3,55,30.13,-9999.0,WSW,8.1,-,N/A,,Unknown,250,2012-10-07 05:00:00